| time (UTC) | temp F | wind direction | speed MPH | gust MPH | rain 1hr in | rain 24hr in | rain mn in | humidity % | barometer mb |
| 20260831124520 | 79 | 158 | 2.0 | 9.0 | 0.00 | 0.08 | 0.08 | 56 | 1013.4 |
| 20260831123023 | 79 | 212 | 0.0 | 5.0 | 0.00 | 0.08 | 0.08 | 56 | 1013.6 |
| 20260831121521 | 78 | 183 | 0.0 | 4.0 | 0.00 | 0.08 | 0.08 | 59 | 1013.7 |
| 20260831120014 | 77 | 290 | 1.0 | 5.0 | 0.00 | 0.08 | 0.08 | 61 | 1013.8 |
| 20260831114513 | 76 | 194 | 0.0 | 4.0 | 0.00 | 0.08 | 0.08 | 63 | 1014.0 |
| 20260831113012 | 75 | 262 | 0.0 | 8.0 | 0.00 | 0.08 | 0.08 | 64 | 1014.4 |
| 20260831111510 | 75 | 202 | 0.0 | 4.0 | 0.00 | 0.08 | 0.08 | 64 | 1014.5 |
| 20260831110012 | 75 | 183 | 0.0 | 4.0 | 0.00 | 0.08 | 0.08 | 69 | 1014.7 |
| 20260831104518 | 74 | 182 | 1.0 | 6.0 | 0.00 | 0.08 | 0.08 | 70 | 1014.7 |
| 20260831103008 | 73 | 195 | 1.0 | 6.0 | 0.00 | 0.08 | 0.08 | 72 | 1014.8 |
| 20260831101502 | 73 | 179 | 1.0 | 7.0 | 0.00 | 0.08 | 0.08 | 74 | 1015.1 |
| 20260831100114 | 71 | 279 | 0.0 | 8.0 | 0.00 | 0.08 | 0.08 | 79 | 1015.3 |
| 20260831094558 | 70 | 181 | 2.0 | 5.0 | 0.00 | 0.08 | 0.08 | 82 | 1015.5 |
| 20260831093100 | 69 | 170 | 0.0 | 3.0 | 0.00 | 0.08 | 0.08 | 84 | 1015.4 |
| 20260831091556 | 68 | 184 | 0.0 | 4.0 | 0.00 | 0.08 | 0.08 | 86 | 1015.4 |
| 20260831090114 | 69 | 155 | 0.0 | 3.0 | 0.00 | 0.08 | 0.08 | 88 | 1015.3 |
| 20260831084552 | 67 | 148 | 0.0 | 3.0 | 0.00 | 0.08 | 0.08 | 92 | 1015.3 |
| 20260831083103 | 66 | 15 | 0.0 | 0.0 | 0.00 | 0.08 | 0.08 | 93 | 1015.3 |
| 20260831081556 | 65 | 344 | 0.0 | 0.0 | 0.00 | 0.08 | 0.08 | 92 | 1015.4 |
| 20260831080120 | 64 | 348 | 0.0 | 0.0 | 0.01 | 0.08 | 0.08 | 93 | 1015.4 |
| 20260831074546 | 64 | 348 | 0.0 | 0.0 | 0.02 | 0.08 | 0.08 | 93 | 1015.5 |
| 20260831073044 | 64 | 348 | 0.0 | 0.0 | 0.02 | 0.08 | 0.08 | 93 | 1015.5 |
| 20260831071547 | 63 | 348 | 0.0 | 0.0 | 0.02 | 0.08 | 0.08 | 93 | 1015.5 |
| 20260831070044 | 63 | 348 | 0.0 | 0.0 | 0.01 | 0.07 | 0.07 | 93 | 1015.3 |
| 20260831064543 | 64 | 348 | 0.0 | 0.0 | 0.00 | 0.06 | 0.06 | 93 | 1015.1 |
| 20260831063041 | 64 | 347 | 0.0 | 0.0 | 0.00 | 0.06 | 0.06 | 94 | 1015.1 |
| 20260831061540 | 63 | 340 | 0.0 | 0.0 | 0.00 | 0.06 | 0.06 | 94 | 1015.2 |
| 20260831060038 | 63 | 340 | 0.0 | 0.0 | 0.00 | 0.06 | 0.06 | 94 | 1015.4 |
| 20260831054535 | 63 | 340 | 0.0 | 0.0 | 0.00 | 0.06 | 0.06 | 93 | 1015.2 |
| 20260831053053 | 63 | 340 | 0.0 | 0.0 | 0.00 | 0.06 | 0.06 | 93 | 1015.1 |
| 20260831051536 | 63 | 340 | 0.0 | 0.0 | 0.00 | 0.06 | 0.06 | 93 | 1015.1 |
| 20260831050030 | 63 | 340 | 0.0 | 0.0 | 0.00 | 0.06 | 0.06 | 93 | 1015.2 |
| 20260831044556 | 63 | 340 | 0.0 | 0.0 | 0.00 | 0.06 | 0.06 | 93 | 1015.2 |
| 20260831043027 | 63 | 340 | 0.0 | 0.0 | 0.00 | 0.06 | 0.06 | 92 | 1015.3 |
| 20260831041533 | 63 | 340 | 0.0 | 0.0 | 0.01 | 0.06 | 0.06 | 92 | 1015.4 |
| 20260831040024 | 63 | 340 | 0.0 | 0.0 | 0.01 | 0.06 | 0.06 | 92 | 1015.5 |
| 20260831034524 | 63 | 340 | 0.0 | 0.0 | 0.02 | 0.06 | 0.06 | 91 | 1015.8 |
| 20260831033024 | 63 | 340 | 0.0 | 0.0 | 0.01 | 0.06 | 0.06 | 91 | 1015.8 |
| 20260831031532 | 63 | 302 | 0.0 | 3.0 | 0.03 | 0.06 | 0.06 | 90 | 1015.8 |
| 20260831030022 | 63 | 334 | 0.0 | 0.0 | 0.04 | 0.06 | 0.06 | 90 | 1015.7 |
| 20260831024520 | 63 | 348 | 0.0 | 4.0 | 0.03 | 0.05 | 0.05 | 89 | 1015.8 |
| 20260831023017 | 64 | 176 | 0.0 | 3.0 | 0.03 | 0.05 | 0.05 | 88 | 1015.6 |
| 20260831021517 | 64 | 261 | 1.0 | 7.0 | 0.01 | 0.02 | 0.02 | 87 | 1015.4 |
| 20260831020012 | 65 | 68 | 0.0 | 0.0 | 0.00 | 0.02 | 0.02 | 85 | 1014.4 |
| 20260831014512 | 65 | 68 | 0.0 | 0.0 | 0.00 | 0.02 | 0.02 | 84 | 1014.0 |
| 20260831013012 | 65 | 68 | 0.0 | 0.0 | 0.00 | 0.02 | 0.02 | 82 | 1014.0 |
| 20260831011512 | 65 | 284 | 0.0 | 2.0 | 0.01 | 0.02 | 0.02 | 85 | 1014.2 |
| 20260831010011 | 65 | 190 | 0.0 | 3.0 | 0.01 | 0.02 | 0.02 | 84 | 1014.5 |
| 20260831004508 | 66 | 220 | 0.0 | 0.0 | 0.01 | 0.02 | 0.02 | 82 | 1014.5 |
| 20260831003006 | 66 | 207 | 0.0 | 0.0 | 0.01 | 0.02 | 0.02 | 80 | 1014.7 |
| 20260831001507 | 66 | 240 | 1.0 | 6.0 | 0.01 | 0.01 | 0.01 | 81 | 1015.0 |
| 20260831000109 | 67 | 336 | 0.0 | 5.0 | 0.01 | 0.01 | 0.01 | 78 | 1014.0 |
| 20260830234611 | 67 | 5 | 0.0 | 4.0 | 0.01 | 0.01 | 0.01 | 75 | 1013.8 |
| 20260830233054 | 70 | 196 | 2.0 | 6.0 | 0.01 | 0.01 | 0.01 | 68 | 1014.0 |
| 20260830231554 | 70 | 22 | 0.0 | 0.0 | 0.00 | 0.00 | 0.00 | 62 | 1012.8 |
| 20260830230053 | 70 | 22 | 0.0 | 0.0 | 0.00 | 0.00 | 0.00 | 62 | 1012.4 |
| 20260830224550 | 70 | 322 | 0.0 | 2.0 | 0.00 | 0.00 | 0.00 | 63 | 1012.4 |
| 20260830223047 | 70 | 337 | 0.0 | 0.0 | 0.00 | 0.00 | 0.00 | 64 | 1012.6 |
| 20260830221544 | 71 | 337 | 0.0 | 0.0 | 0.00 | 0.00 | 0.00 | 63 | 1012.9 |
| 20260830220042 | 71 | 337 | 0.0 | 0.0 | 0.00 | 0.00 | 0.00 | 64 | 1012.7 |
| 20260830214541 | 71 | 337 | 0.0 | 0.0 | 0.00 | 0.00 | 0.00 | 62 | 1012.3 |
| 20260830213053 | 72 | 337 | 0.0 | 0.0 | 0.00 | 0.00 | 0.00 | 60 | 1012.1 |
| 20260830211541 | 71 | 338 | 0.0 | 0.0 | 0.00 | 0.00 | 0.00 | 61 | 1012.2 |
| 20260830210041 | 72 | 338 | 0.0 | 0.0 | 0.00 | 0.00 | 0.00 | 60 | 1012.1 |
| 20260830204542 | 72 | 338 | 0.0 | 0.0 | 0.00 | 0.00 | 0.00 | 57 | 1012.1 |
| 20260830203039 | 73 | 338 | 0.0 | 0.0 | 0.00 | 0.00 | 0.00 | 57 | 1012.1 |
| 20260830201539 | 72 | 336 | 0.0 | 2.0 | 0.00 | 0.00 | 0.00 | 58 | 1012.0 |
| 20260830200038 | 73 | 328 | 0.0 | 0.0 | 0.00 | 0.00 | 0.00 | 58 | 1012.0 |
| 20260830194538 | 73 | 333 | 0.0 | 0.0 | 0.00 | 0.00 | 0.00 | 58 | 1012.0 |
| 20260830193038 | 74 | 333 | 0.0 | 0.0 | 0.00 | 0.00 | 0.00 | 55 | 1011.9 |
| 20260830191537 | 75 | 333 | 0.0 | 0.0 | 0.00 | 0.00 | 0.00 | 53 | 1011.6 |
| 20260830190037 | 75 | 288 | 0.0 | 2.0 | 0.00 | 0.00 | 0.00 | 53 | 1011.3 |
| 20260830184541 | 75 | 236 | 0.0 | 2.0 | 0.00 | 0.00 | 0.00 | 54 | 1011.1 |
| 20260830183036 | 76 | 227 | 0.0 | 7.0 | 0.00 | 0.00 | 0.00 | 51 | 1010.7 |
| 20260830181539 | 77 | 195 | 0.0 | 7.0 | 0.00 | 0.00 | 0.00 | 50 | 1010.5 |
| 20260830180035 | 77 | 194 | 0.0 | 4.0 | 0.00 | 0.00 | 0.00 | 49 | 1010.4 |
| 20260830174534 | 78 | 198 | 1.0 | 5.0 | 0.00 | 0.00 | 0.00 | 48 | 1010.3 |
| 20260830173033 | 79 | 257 | 0.0 | 5.0 | 0.00 | 0.00 | 0.00 | 47 | 1010.3 |
| 20260830171533 | 80 | 183 | 1.0 | 5.0 | 0.00 | 0.00 | 0.00 | 47 | 1010.1 |
| 20260830170033 | 80 | 184 | 2.0 | 7.0 | 0.00 | 0.00 | 0.00 | 46 | 1010.0 |
| 20260830164533 | 81 | 182 | 0.0 | 3.0 | 0.00 | 0.00 | 0.00 | 45 | 1009.8 |
| 20260830163031 | 82 | 226 | 1.0 | 8.0 | 0.00 | 0.00 | 0.00 | 43 | 1009.8 |
| 20260830161530 | 84 | 204 | 0.0 | 6.0 | 0.00 | 0.00 | 0.00 | 41 | 1009.8 |
| 20260830160030 | 84 | 227 | 0.0 | 7.0 | 0.00 | 0.00 | 0.00 | 41 | 1009.8 |
| 20260830154531 | 82 | 184 | 0.0 | 6.0 | 0.00 | 0.00 | 0.00 | 46 | 1009.8 |
| 20260830153130 | 82 | 187 | 2.0 | 10.0 | 0.00 | 0.00 | 0.00 | 45 | 1009.9 |
| 20260830151528 | 83 | 188 | 3.0 | 8.0 | 0.00 | 0.00 | 0.00 | 43 | 1010.0 |
| 20260830150049 | 84 | 181 | 4.0 | 9.0 | 0.00 | 0.00 | 0.00 | 41 | 1010.0 |
| 20260830144529 | 84 | 181 | 2.0 | 7.0 | 0.00 | 0.00 | 0.00 | 42 | 1010.0 |
| 20260830143025 | 84 | 187 | 2.0 | 8.0 | 0.00 | 0.00 | 0.00 | 42 | 1010.1 |
| 20260830141524 | 84 | 181 | 0.0 | 9.0 | 0.00 | 0.00 | 0.00 | 42 | 1010.3 |
| 20260830140020 | 84 | 169 | 0.0 | 0.0 | 0.00 | 0.00 | 0.00 | 42 | 1010.6 |
| 20260830134532 | 84 | 177 | 0.0 | 0.0 | 0.00 | 0.00 | 0.00 | 41 | 1010.8 |
| 20260830133014 | 83 | 213 | 0.0 | 0.0 | 0.00 | 0.00 | 0.00 | 42 | 1011.0 |
| 20260830131514 | 83 | 184 | 0.0 | 0.0 | 0.00 | 0.00 | 0.00 | 40 | 1011.2 |
| 20260830130010 | 83 | 200 | 0.0 | 0.0 | 0.00 | 0.00 | 0.00 | 43 | 1011.3 |